GFSCGP_500_spd_348.txt.gz
Wind_Speed
3 2 6 8 15 9 12 13 10 19 20 14 13 16 16 16 12 16 11 7 11 10 9 12 9 17 13 12 12 15 15 17 16 16 16 16 17 18 19 20 22 23 23 24
6 13 12 12 16 11 9 5 8 14 13 16 21 21 24 17 20 16 18 18 19 14 11 7 5 12 12 22 18 16 18 19 19 17 16 20 21 22 21 21 23 25 25 27
9 5 4 3 9 8 5 4 7 10 12 11 19 20 20 18 20 17 21 20 17 18 17 13 13 9 12 13 22 16 15 21 24 22 22 23 25 27 27 26 25 28 29 32
7 3 5 3 10 12 10 6 3 1 6 10 16 19 19 18 18 18 20 21 21 22 20 14 15 13 13 17 18 13 14 12 19 22 22 25 25 30 30 27 29 29 29 34
3 6 9 2 17 19 15 7 5 7 12 6 12 12 17 18 13 18 17 19 21 22 18 20 18 18 17 18 12 18 15 15 24 26 29 29 25 24 29 27 29 30 31 35
3 3 3 16 20 16 10 5 15 16 11 11 10 11 18 19 24 23 23 29 27 18 18 24 27 24 21 21 18 21 20 20 26 31 27 35 31 28 31 29 30 35 32 30
10 8 15 17 14 4 6 2 10 9 9 6 11 13 15 21 23 22 25 29 14 15 19 19 28 30 28 25 26 24 21 22 30 32 31 37 36 33 23 25 26 25 32 33
7 7 10 11 9 5 6 7 11 10 11 8 8 11 15 18 23 25 24 13 16 20 19 23 25 29 34 33 33 34 32 32 34 34 37 38 38 35 29 26 29 26 25 27
1 2 6 9 12 11 6 5 2 7 7 4 6 8 14 18 21 21 19 21 22 18 18 22 26 30 34 38 39 37 41 41 41 40 40 41 41 38 33 26 32 22 16 22
3 6 6 6 8 3 6 7 7 8 10 4 9 13 16 21 24 24 27 27 26 25 27 30 32 35 39 42 46 47 48 45 48 44 44 44 42 38 37 34 35 25 12 15
5 6 5 8 9 5 1 10 15 13 10 16 18 18 24 26 26 30 29 28 27 29 32 34 36 37 42 47 51 53 53 51 46 48 46 44 42 41 39 37 45 26 14 16
7 7 6 11 16 13 13 11 14 22 10 16 20 19 23 26 27 29 28 28 29 32 36 42 43 43 46 50 53 56 60 56 53 50 45 42 39 38 42 46 42 22 18 19
14 15 12 8 14 20 21 24 26 26 14 16 19 16 25 27 30 30 31 31 33 35 38 39 42 44 47 51 55 55 54 57 56 47 42 38 31 34 35 42 29 28 28 25
15 17 19 14 15 20 25 30 32 31 29 28 27 28 28 29 32 34 33 33 34 36 38 40 42 44 47 51 53 51 49 50 43 37 29 28 25 36 35 23 19 28 26 26
13 12 20 20 17 21 26 29 30 36 38 38 36 37 33 32 33 31 30 34 38 41 41 43 44 46 48 51 50 47 43 40 33 27 22 21 22 26 35 31 30 33 36 28
18 16 19 19 19 21 25 21 29 30 32 37 38 36 36 35 32 31 29 33 41 45 44 44 45 47 48 51 49 46 40 34 28 24 20 17 18 19 23 22 28 27 23 19
21 23 22 19 21 22 17 22 26 29 30 33 36 36 38 36 33 32 33 37 40 43 42 44 46 47 49 50 49 41 36 34 30 25 22 17 20 21 16 16 23 10 5 12
21 22 25 26 23 25 19 16 25 29 32 32 35 36 37 37 36 36 36 39 40 44 44 44 47 46 47 49 46 39 34 33 30 24 20 16 15 18 19 12 13 12 12 14
26 29 31 32 32 32 28 27 28 33 37 38 38 39 40 41 41 40 40 41 45 46 46 45 45 46 47 49 45 40 34 31 29 27 20 18 16 14 13 11 12 15 18 17
29 33 35 36 40 40 37 37 38 38 41 41 39 40 42 44 43 43 44 47 48 46 47 46 45 46 48 48 43 29 26 31 31 29 21 18 18 16 13 9 11 12 15 23
31 33 36 39 43 45 45 46 46 46 44 45 46 47 48 48 47 45 47 49 51 47 46 46 45 47 47 47 37 34 33 31 32 31 27 21 19 18 14 12 13 8 8 11
37 38 39 39 42 44 45 47 49 50 52 54 55 56 57 56 53 51 50 53 54 48 47 47 45 45 46 45 38 33 23 26 28 29 28 25 18 14 15 14 10 9 11 11
39 40 39 38 40 43 47 50 52 54 55 55 56 57 57 56 54 52 54 55 54 50 44 46 46 45 46 43 36 22 19 27 26 25 20 19 18 16 14 13 11 9 8 12
34 34 37 40 41 45 49 51 53 55 58 59 60 60 58 57 56 55 55 55 54 52 44 43 48 45 45 42 35 30 27 26 20 21 19 20 19 17 18 17 14 12 12 12
36 37 38 42 43 46 48 50 52 53 54 55 54 52 52 53 51 49 48 48 49 48 43 39 44 42 40 37 32 26 23 25 20 22 23 21 20 21 18 16 16 15 15 16
40 44 47 47 48 52 53 51 51 50 46 45 46 47 47 48 50 48 48 48 47 45 41 36 40 38 38 33 29 24 22 24 20 21 23 22 22 23 20 19 18 18 19 20

GFSCGP_500_spd_351.txt.gz
Wind_Speed
2 11 10 11 8 5 10 11 17 18 19 18 19 12 17 16 12 11 9 10 13 11 9 8 11 11 7 10 6 8 8 9 9 10 11 9 10 15 18 21 22 22 22 23
5 10 10 10 9 9 9 7 7 13 16 17 20 19 16 17 17 16 19 18 15 12 13 11 12 13 11 9 13 15 10 12 13 18 16 17 16 18 17 21 24 26 25 25
6 11 8 4 6 7 8 8 6 11 15 14 18 17 18 16 13 13 15 14 13 12 13 11 10 10 12 13 13 16 11 14 16 17 17 19 17 22 22 18 21 25 26 27
8 9 7 8 10 7 9 6 9 8 8 8 10 13 17 13 9 9 12 12 12 13 12 10 9 10 10 13 13 13 16 16 18 22 23 23 24 22 23 22 22 28 32 30
3 3 4 10 9 6 6 11 7 5 3 8 6 8 12 10 7 5 8 8 9 9 9 12 10 9 9 11 12 14 18 17 13 21 29 29 28 29 26 27 33 37 32 34
1 3 2 15 12 9 8 13 10 3 3 5 4 5 6 5 6 5 9 9 6 3 5 12 12 11 11 14 16 17 19 21 22 26 30 33 34 34 35 33 35 30 30 29
11 11 18 12 9 4 11 5 2 4 4 4 5 3 4 1 8 7 11 9 7 6 7 10 13 15 16 20 23 26 28 28 29 31 31 34 35 37 37 37 38 36 34 34
8 11 14 13 8 8 5 5 7 8 4 5 5 7 7 10 11 9 9 9 7 5 11 13 15 16 19 23 27 30 32 31 34 40 38 36 38 38 38 42 43 44 40 38
5 8 13 16 15 13 7 1 8 6 10 13 13 15 13 16 15 15 12 12 13 14 16 18 23 27 29 30 32 33 37 37 40 43 38 37 38 39 41 44 47 43 52 46
8 7 6 10 11 8 5 8 8 12 16 17 20 22 20 19 18 18 18 14 15 19 22 24 27 30 33 35 36 35 37 41 44 47 39 43 42 41 42 46 46 46 52 37
12 12 14 14 13 9 9 12 14 19 19 20 25 25 24 23 23 23 21 17 20 23 25 28 31 31 34 36 39 41 43 46 48 48 44 43 41 39 40 42 41 44 51 43
8 8 10 16 15 16 17 20 23 22 18 20 25 20 24 24 26 27 28 27 27 28 32 36 36 36 38 39 41 43 45 49 49 47 46 43 41 37 33 36 35 38 48 50
13 11 9 10 16 21 23 26 27 28 27 23 22 22 25 28 29 30 32 33 33 31 33 37 39 38 40 42 43 45 46 47 48 45 41 40 38 35 28 28 40 45 39 53
12 12 19 16 16 20 24 27 29 31 34 34 28 28 29 28 32 35 36 33 31 30 34 40 42 41 42 44 45 47 48 48 47 42 39 37 37 34 25 25 30 28 28 21
13 12 15 13 15 19 23 24 28 32 34 36 35 36 34 35 36 38 36 34 32 35 39 44 46 46 43 44 45 46 47 48 47 44 39 34 32 28 27 26 25 27 26 21
14 15 18 16 17 21 23 20 25 30 34 36 37 38 37 37 36 36 36 33 36 39 41 45 47 46 45 46 47 47 47 46 44 46 37 31 28 26 24 20 19 25 22 19
18 20 21 19 19 21 16 20 23 28 30 32 33 32 33 33 34 35 35 36 39 40 41 44 47 47 48 49 49 49 46 46 46 40 36 30 27 23 23 23 22 21 23 10
20 22 25 27 27 29 24 24 28 33 34 35 35 34 34 35 36 37 38 40 42 44 45 48 52 52 50 49 49 47 45 45 40 39 32 31 28 24 21 23 22 18 16 13
23 26 29 31 33 37 35 33 35 36 37 37 36 37 37 37 38 39 42 43 45 47 48 50 52 51 48 48 48 46 45 44 40 40 33 31 29 25 21 22 23 18 16 15
27 30 32 36 39 43 41 40 41 42 42 39 40 41 41 41 41 41 44 45 46 49 53 55 55 52 51 49 48 47 45 44 36 39 32 30 26 25 23 24 24 21 18 18
29 33 36 40 43 44 48 49 48 44 44 44 45 46 47 48 48 48 48 50 52 54 55 54 51 51 49 48 47 46 43 43 35 36 32 30 25 24 23 25 23 21 19 20
35 37 39 41 44 46 47 44 44 45 47 47 48 49 50 51 51 50 50 48 48 49 50 50 46 46 46 46 44 43 42 40 37 31 30 31 27 23 21 19 22 20 19 20
39 40 41 43 43 42 42 44 46 48 50 52 52 53 54 56 56 54 53 53 53 50 49 49 45 42 44 45 43 41 40 35 33 31 36 29 23 17 16 16 16 18 20 19
39 36 38 41 41 44 46 47 48 50 52 53 55 55 55 55 54 54 56 58 56 53 50 47 44 39 41 42 40 37 35 32 30 29 30 25 22 21 22 17 17 18 19 20
37 39 42 42 43 46 47 50 51 52 53 53 51 49 49 51 52 54 55 55 53 51 50 50 47 40 38 40 36 36 32 30 27 29 27 25 22 23 24 21 19 17 18 18
41 46 46 45 44 46 46 45 46 47 47 47 46 45 46 49 49 48 47 46 46 47 48 47 44 42 37 36 35 34 31 26 26 28 25 24 22 22 23 23 20 19 19 18

GFSCGP_500_spd_357.txt.gz
Wind_Speed
5 4 5 6 6 11 12 8 5 2 4 7 8 9 8 7 7 5 7 9 3 2 2 4 4 4 6 5 6 4 5 5 6 7 8 7 5 6 9 12 15 17 18 20
6 4 4 6 4 7 5 8 7 5 6 10 11 10 12 12 9 9 10 10 10 9 9 7 6 6 5 6 6 6 8 8 7 7 10 12 11 11 13 14 17 19 21 21
3 1 4 4 3 2 1 3 3 4 7 8 10 12 10 9 6 4 4 3 5 6 5 5 2 1 2 3 3 3 5 6 7 10 12 15 17 18 19 22 24 23 22 23
5 3 3 3 3 6 1 3 3 5 4 4 4 8 7 5 3 4 3 4 6 4 3 1 1 4 6 6 7 7 6 8 9 11 13 16 18 19 22 23 26 29 29 29
8 7 8 6 2 1 6 5 5 5 5 5 4 4 3 2 2 3 4 7 3 3 4 3 4 6 7 9 9 11 13 14 16 18 19 19 18 21 23 24 27 31 33 35
9 8 9 5 3 6 7 6 5 3 2 6 5 5 3 6 1 5 6 5 10 10 5 7 10 11 11 13 14 13 14 15 18 20 22 23 23 25 26 27 28 30 33 36
7 7 8 8 7 6 7 9 5 5 3 6 6 2 6 9 7 6 8 7 8 13 10 11 14 19 19 18 17 18 15 15 18 20 23 24 24 26 28 32 29 32 34 37
4 6 7 6 7 7 9 9 11 11 6 8 8 9 8 10 12 13 14 14 12 11 14 15 20 23 24 22 18 17 19 21 22 23 25 27 27 28 29 32 31 30 33 34
5 6 4 6 7 11 11 12 12 14 16 12 13 14 12 14 17 19 20 19 16 15 16 20 24 26 26 23 24 25 26 26 27 28 30 30 30 32 32 33 35 34 34 34
7 7 9 10 11 13 14 13 14 17 19 18 17 13 10 12 15 16 17 17 17 21 24 27 27 28 30 29 31 30 29 30 31 32 33 33 34 36 35 35 37 36 34 34
10 10 12 13 15 17 17 18 18 19 18 21 23 16 12 16 15 15 17 19 23 26 29 30 31 32 34 35 37 36 35 35 35 35 35 36 37 38 37 36 38 36 33 32
13 9 11 12 16 16 13 15 16 17 20 22 25 18 18 14 15 18 19 21 24 27 30 31 33 35 37 39 41 41 39 38 39 38 38 39 40 40 38 38 39 37 32 31
9 9 11 12 15 18 17 16 17 19 21 23 25 26 24 26 24 22 22 24 27 30 32 33 34 37 39 41 44 44 44 43 42 41 42 43 42 41 40 40 40 37 32 31
11 8 9 12 16 17 16 19 21 22 24 25 22 25 22 23 25 26 28 29 28 30 32 32 36 38 42 46 49 50 51 49 48 47 47 47 44 42 41 41 39 36 34 33
16 16 14 14 17 17 12 15 21 24 23 24 24 25 26 28 30 29 30 33 34 35 37 39 41 44 47 51 53 54 54 53 50 49 48 47 47 45 42 39 37 34 34 34
18 19 19 15 19 20 10 9 20 21 22 25 28 29 30 33 36 37 37 38 38 38 39 41 44 48 51 53 55 57 57 57 54 50 49 47 46 44 41 39 37 35 33 35
19 21 22 19 19 22 15 17 23 25 26 31 34 35 35 36 38 39 39 38 37 38 41 43 46 48 51 54 57 59 59 60 59 53 50 47 44 42 40 36 35 34 30 33
22 24 25 26 23 26 24 24 26 28 29 33 36 37 39 41 41 40 37 36 39 41 43 45 47 50 53 56 60 61 61 60 59 56 52 49 46 43 40 35 32 30 29 31
23 26 27 28 28 30 30 31 32 35 34 36 38 40 41 40 38 34 38 41 41 44 47 49 52 56 57 58 59 59 58 56 56 53 50 47 45 43 41 36 33 30 27 29
24 29 29 29 31 34 35 37 39 40 43 44 45 43 41 39 39 40 43 46 46 48 51 54 56 58 58 56 55 52 47 45 47 46 46 44 39 38 36 35 33 29 26 27
22 26 29 32 35 39 41 41 43 46 47 45 43 41 42 42 44 46 49 51 53 55 56 58 59 59 56 51 47 41 42 44 45 44 44 42 39 34 33 31 26 23 25 27
26 29 31 35 39 43 44 44 45 47 45 42 43 46 49 50 51 52 52 54 55 56 57 58 58 56 54 49 46 46 46 45 43 41 42 39 36 33 31 29 27 25 27 25
32 33 36 39 41 42 44 44 44 45 43 45 47 48 51 52 53 54 54 55 56 57 58 59 60 58 52 51 51 48 42 41 39 36 38 37 34 32 29 27 21 24 24 21
36 38 40 40 40 41 40 40 43 45 47 48 51 52 53 54 53 51 52 53 52 52 52 50 47 45 44 43 41 40 43 39 40 35 31 35 31 28 26 24 20 21 20 20
39 40 41 41 40 40 40 44 46 47 49 49 51 51 50 49 50 51 51 52 50 48 45 41 41 46 43 41 39 39 39 37 42 40 30 31 31 26 22 21 20 22 22 22
38 38 39 39 41 43 44 45 46 47 47 48 46 45 46 48 48 49 49 50 51 50 51 43 43 43 43 42 40 36 40 37 38 39 35 41 26 23 23 20 21 23 23 22

GFSCGP_500_spd_360.txt.gz
Wind_Speed
12 12 9 9 9 8 6 3 3 3 3 2 3 4 3 3 2 3 3 4 6 5 5 5 4 3 2 2 3 3 4 3 1 4 5 6 8 9 11 13 15 16 17 17
14 10 7 7 7 7 4 3 2 3 3 3 4 5 6 10 8 6 5 6 6 6 5 4 4 5 5 3 3 2 3 3 3 5 6 8 11 12 13 16 18 21 21 21
11 9 7 6 5 2 0 1 2 2 2 4 5 3 4 5 6 6 4 4 3 1 1 1 2 2 1 3 3 4 4 5 6 7 10 11 12 15 17 19 20 22 24 27
5 6 2 3 1 2 7 3 4 5 5 4 4 4 6 6 9 7 4 5 6 5 5 4 5 5 5 6 7 8 9 10 11 12 12 13 14 15 19 23 25 27 31 29
8 4 3 2 1 2 5 4 4 1 5 2 4 6 14 7 7 9 12 12 11 10 9 9 9 10 9 11 12 14 15 16 17 18 20 19 18 20 21 21 22 27 30 31
6 6 7 4 4 5 8 5 3 4 7 2 6 1 6 6 5 7 6 7 10 14 16 15 14 14 14 15 17 20 21 22 21 21 21 22 22 23 23 25 26 28 29 31
7 13 12 6 6 4 5 8 5 5 3 6 6 4 10 10 9 8 10 15 16 15 17 20 21 21 21 21 21 22 24 25 24 23 25 26 26 26 26 27 28 29 31 34
5 6 3 5 7 6 5 4 1 2 3 8 8 5 7 13 13 12 15 16 18 17 15 18 24 26 26 27 26 25 24 24 26 26 26 28 29 29 29 30 31 31 33 33
2 4 2 4 3 4 9 4 10 5 13 5 10 9 11 17 16 14 18 16 14 16 18 19 23 26 27 28 31 31 30 31 30 29 31 33 34 34 33 33 33 32 32 34
4 1 8 6 6 8 7 8 6 9 8 8 9 13 8 17 14 13 12 13 15 20 21 25 28 30 34 33 34 36 37 37 35 33 34 35 37 38 37 37 38 38 34 35
5 4 13 9 11 14 13 11 12 11 13 11 11 8 23 16 15 14 16 16 18 22 24 27 29 32 36 38 37 39 41 41 39 38 38 40 41 41 41 42 43 41 38 38
9 9 8 12 19 17 13 14 12 12 12 15 17 14 16 13 14 16 15 18 21 23 25 27 30 32 36 39 40 42 43 44 43 42 42 42 44 44 44 46 46 43 41 39
12 9 8 10 17 20 16 17 15 15 18 17 17 14 19 21 17 15 17 17 20 22 25 29 32 35 39 42 44 45 47 49 48 46 44 43 44 45 45 45 45 44 43 40
16 12 14 13 18 23 20 18 18 16 17 17 17 20 18 23 25 27 26 28 28 29 30 32 35 37 41 43 46 48 51 52 52 52 51 49 48 48 48 46 45 44 43 39
14 17 18 17 21 22 18 19 21 22 22 22 19 23 23 27 30 30 31 30 34 36 38 39 38 39 42 45 48 50 52 55 56 58 57 57 53 51 49 47 46 45 43 39
18 18 20 17 20 22 19 18 20 23 23 23 26 29 30 30 33 35 37 39 38 40 39 37 38 41 44 46 48 52 55 57 59 61 61 60 56 50 47 45 44 44 42 37
18 19 22 21 20 24 23 19 20 23 26 29 31 34 35 35 37 39 40 41 43 38 36 38 41 45 46 49 51 54 57 58 60 60 59 55 52 47 45 43 42 41 38 36
23 22 26 27 24 26 29 24 24 25 29 31 35 37 38 40 40 40 41 39 39 39 40 43 46 49 51 54 56 57 59 58 58 57 54 49 50 47 42 38 39 39 35 33
23 25 29 28 27 29 28 30 26 28 33 37 36 38 41 40 39 36 39 38 40 43 44 46 50 53 53 53 55 56 56 54 53 51 50 46 47 45 40 36 33 35 33 34
24 24 28 30 31 30 34 30 32 36 38 42 43 42 43 42 38 38 40 43 45 46 47 48 50 51 52 54 55 54 54 55 52 50 48 46 47 46 42 36 33 32 34 33
28 26 26 28 32 33 37 36 39 42 43 45 46 46 43 42 42 45 45 46 48 48 48 47 48 50 50 52 54 53 57 52 50 48 46 45 42 43 40 36 33 31 30 30
29 29 28 32 33 37 39 40 41 43 45 45 45 44 44 44 47 48 48 49 49 48 47 49 50 52 50 48 49 53 50 49 50 46 42 41 40 39 39 34 32 29 29 28
29 29 30 34 37 40 41 42 44 44 44 44 43 44 46 47 48 49 50 48 46 47 49 50 51 51 47 46 51 53 47 39 46 41 43 41 40 40 36 28 29 29 26 26
33 33 37 37 39 39 38 42 41 41 42 44 46 47 48 48 49 48 48 47 48 48 47 48 48 48 50 49 50 52 53 47 45 43 43 40 36 35 29 26 25 27 25 24
37 39 38 38 39 37 39 39 40 43 44 46 47 48 47 47 48 48 47 47 47 47 48 48 47 48 47 48 44 44 45 44 43 41 39 40 35 39 29 30 29 22 26 24
38 37 38 38 38 37 39 40 42 44 45 46 45 45 46 46 45 46 46 44 45 47 46 45 46 46 46 44 42 42 42 43 41 39 38 37 30 30 33 28 23 21 22 25

GFSCGP_500_spd_366.txt.gz
Wind_Speed
14 9 18 22 21 21 12 6 3 11 12 14 11 15 15 15 11 12 11 13 12 10 8 7 4 4 4 6 7 8 9 4 4 3 3 6 8 8 9 10 11 12 13 15
14 13 16 18 17 7 12 11 5 3 12 15 2 10 5 13 12 11 8 6 8 9 9 8 6 5 3 3 4 5 6 6 8 9 10 11 13 14 15 15 14 16 16 17
17 16 18 14 9 6 3 11 2 5 7 9 4 6 15 8 12 13 11 9 8 7 6 6 6 6 6 6 7 8 10 11 11 12 13 15 16 18 18 18 18 18 21 22
11 12 15 12 14 6 8 10 7 7 12 10 3 3 10 6 13 12 4 11 10 12 10 9 8 7 8 10 11 11 13 14 16 16 16 17 19 21 21 21 22 24 23 23
10 7 12 1 8 4 8 9 5 8 21 4 16 16 17 20 18 17 15 18 22 28 20 15 12 12 14 15 16 18 19 20 21 22 23 23 24 23 24 25 23 24 26 27
8 10 9 1 0 9 13 13 3 7 14 13 15 16 11 21 14 7 10 14 23 30 27 30 21 18 18 18 18 20 22 22 23 24 24 26 27 27 28 30 31 31 31 28
8 8 4 1 15 4 4 5 10 8 8 9 19 5 19 17 18 9 7 12 21 19 25 29 37 32 13 13 19 22 23 24 25 26 26 27 29 30 30 30 31 34 36 37
5 8 6 3 10 11 2 5 8 14 12 19 8 6 13 18 13 11 1 13 17 18 17 23 35 35 34 28 18 29 26 28 29 30 28 27 28 29 30 32 34 36 39 41
8 11 5 2 4 7 2 6 6 3 8 6 8 8 10 10 8 12 7 8 14 12 10 18 29 31 31 37 32 27 33 30 30 29 30 30 31 32 34 35 35 35 38 40
9 5 1 8 3 3 5 6 7 2 11 2 14 14 7 11 7 16 29 18 18 23 22 23 29 32 23 41 37 28 33 37 35 36 37 37 36 37 37 38 38 39 41 43
6 13 3 3 2 6 12 3 4 6 4 7 8 17 16 7 18 29 30 21 23 23 23 19 18 27 33 40 38 36 33 41 41 40 40 40 41 42 43 45 45 45 46 48
3 12 18 13 11 18 16 7 3 6 5 7 9 8 8 16 16 14 23 21 23 21 23 25 25 26 35 41 41 40 39 42 41 40 41 43 45 47 49 51 52 52 53 53
12 7 3 9 9 11 6 7 8 10 8 7 8 7 26 16 14 22 34 25 29 30 30 26 29 31 38 42 41 41 40 40 40 41 44 47 49 51 54 56 57 57 57 55
6 16 5 5 19 6 12 13 14 11 12 12 12 18 23 28 30 37 26 30 34 36 37 40 34 35 39 40 40 39 39 40 43 44 46 49 52 55 58 61 62 62 61 59
10 9 11 14 16 14 15 15 14 15 17 18 18 18 30 32 32 28 32 36 40 41 39 43 47 41 41 39 42 43 43 44 47 49 48 51 56 59 61 62 63 63 62 61
6 8 17 14 10 11 16 19 19 16 17 13 13 26 34 34 31 34 36 41 45 46 48 44 45 50 46 50 50 47 44 41 51 52 52 55 58 60 61 63 64 62 63 63
7 11 17 12 15 16 12 10 16 19 22 18 16 30 36 34 35 36 41 46 48 45 46 47 41 46 49 53 75 23 29 64 49 62 59 57 58 60 63 64 64 62 61 60
10 16 13 15 16 14 13 18 26 27 22 29 31 32 32 35 38 38 46 46 47 49 44 46 44 42 45 53 55 69 55 59 57 58 59 61 62 62 61 63 61 58 55 46
13 23 22 25 24 22 21 19 27 32 32 33 31 31 35 39 40 42 45 44 45 48 45 48 50 49 52 52 51 56 53 53 53 56 58 58 60 61 56 54 59 54 48 38
15 22 23 19 25 22 22 37 32 32 35 37 35 39 42 44 46 46 47 46 46 48 48 49 50 50 53 52 51 52 52 52 53 55 57 57 56 56 53 53 58 54 38 37
35 18 26 23 26 24 37 35 40 39 42 40 41 44 47 49 49 50 49 49 50 51 53 53 51 52 52 50 49 50 51 51 53 55 54 52 53 55 54 50 47 52 47 47
27 33 37 35 25 28 38 41 41 41 40 42 45 48 50 50 51 51 49 49 50 52 54 54 54 53 50 50 49 49 49 51 52 50 49 51 50 49 50 48 45 44 46 44
38 38 38 34 31 37 42 41 41 42 43 45 48 49 51 52 53 52 51 52 54 55 56 55 55 53 52 51 50 50 48 49 48 48 49 50 50 49 47 49 45 44 42 30
36 39 38 38 36 38 41 43 42 42 44 47 49 50 51 51 53 54 56 56 57 57 57 56 55 53 52 50 50 48 49 49 49 48 48 47 51 48 46 47 45 43 37 32
32 34 37 37 39 40 44 45 46 47 46 48 49 51 50 52 55 58 60 59 60 59 56 55 53 51 50 50 48 46 47 46 45 43 45 49 49 47 46 45 43 38 30 26
35 36 35 39 42 42 45 46 49 50 51 48 51 51 53 56 59 61 61 61 60 59 53 52 50 50 48 46 44 44 44 42 43 45 47 46 45 43 36 31 28 23 20 22